[[{"header":{"parameterUnit":"m.s-1","parameterCategory":1,"la1":30.2991,"la2":30.254,"lo1":-89.0895,"lo2":-89.0444,"dy":0.0017,"dx":0.0017,"nx":28,"ny":28,"refTime":"2024-11-27T03:00:00:Z","depth":0,"parameterNumber":2,"parameterNumberName":"U-component_of_WINDS"},"data":[0,0,0,0,0,0,0,0,0,0,0,0,0,0,0,0,0,0,0,0,0,0,0,0,0,0,0,0,0,0,0,0,0,0,0,0,0,0,0,0,0,0,0,0,0,0,0,0,0,0,0,0,0,0,0,0,0,0,-0.883,-0.883,0,-0.8839,-0.8839,-0.8839,-0.88,-0.8799,-0.8798,-0.8797,-0.8807,-0.8808,-0.881,0,0,0,0,0,0,0,0,0,0,0,0,0,-0.8778,-0.8779,-0.883,-0.883,-0.883,-0.8839,-0.8839,-0.8839,-0.88,-0.8799,-0.8798,-0.8796,-0.8807,-0.8808,-0.881,0,0,0,0,0,0,0,0,0,0,0,0,0,-0.8796,-0.878,-0.883,-0.8812,-0.881,-0.8839,-0.8839,-0.884,-0.8801,-0.8799,-0.8797,-0.8796,-0.8806,-0.8808,-0.881,-0.8857,0,0,-0.8816,-0.8817,0,0,0,0,0,0,0,0,-0.8795,-0.8797,-0.8814,-0.8813,-0.8811,-0.8817,-0.8825,-0.8845,-0.8801,-0.8804,-0.8797,-0.8795,-0.8812,-0.8813,-0.8819,-0.8858,-0.8858,-0.8816,-0.8818,-0.8818,-0.8819,0,0,0,0,0,0,0,-0.8793,-0.8797,-0.8834,-0.8815,-0.8813,-0.8803,-0.8804,-0.8829,-0.8818,-0.8804,-0.8801,-0.8803,-0.8811,-0.8817,-0.8819,-0.8858,-0.8816,-0.8818,-0.8819,-0.882,-0.8935,-0.8937,0,0,0,0,0,0,-0.8795,-0.8796,-0.8833,-0.8834,-0.8799,-0.8805,-0.8806,-0.8817,-0.8817,-0.8816,-0.8804,-0.8801,-0.8814,-0.8816,-0.8819,-0.8874,-0.8818,-0.882,-0.8821,-0.8934,-0.8936,-0.8938,0,0,0,0,0,0,-0.8794,-0.8798,-0.8833,-0.8814,-0.8818,-0.8808,-0.8821,-0.8818,-0.8824,-0.8817,-0.8815,-0.8813,-0.8813,-0.8816,-0.8848,-0.8874,-0.8821,-0.8823,-0.8931,-0.8934,-0.8937,-0.8985,0,0,0,0,0,0,-0.8792,-0.8798,-0.8816,-0.8815,-0.8819,-0.8862,-0.8822,-0.8819,-0.8828,-0.8823,-0.8825,-0.8823,-0.8812,-0.8845,-0.885,-0.8876,-0.8825,-0.8929,-0.8933,-0.8936,-0.8981,-0.8989,-0.8996,0,0,0,0,0,-0.8791,-0.883,-0.8817,-0.8822,-0.8841,-0.8864,-0.8866,-0.8852,-0.883,-0.8848,-0.8843,-0.8823,-0.887,-0.8849,-0.8854,-0.8881,-0.8927,-0.8932,-0.8936,-0.8978,-0.8988,-0.8996,0,0,0,0,0,0,-0.8835,-0.8829,-0.8816,-0.8855,-0.886,-0.8857,-0.8879,-0.8863,-0.8874,-0.887,-0.8851,-0.8852,-0.8887,-0.8887,-0.8863,-0.8926,-0.8895,-0.89,-0.8925,-0.8934,-0.8942,-0.8942,-0.8826,0,0,0,0,0,-0.8849,-0.8868,-0.8862,-0.8897,-0.89,-0.8889,-0.8899,-0.8887,-0.8891,-0.8893,-0.8891,-0.8896,-0.8912,-0.8923,-0.8937,-0.898,-0.898,-0.9001,-0.9009,-0.9015,-0.902,-0.9043,-0.9052,-0.8952,-0.8952,-0.8951,0,0,-0.8879,-0.8878,-0.8891,-0.8906,-0.8909,-0.8928,-0.8892,-0.8914,-0.8928,-0.8897,-0.8927,-0.8925,-0.893,-0.8967,-0.8984,-0.8968,-0.9048,-0.902,-0.9025,-0.9027,-0.9048,-0.9058,-0.9066,-0.8954,-0.8954,-0.8953,0,0,-0.8944,-0.8945,-0.8975,-0.8978,-0.8982,-0.8974,-0.8981,-0.898,-0.8978,-0.9007,-0.8984,-0.9,-0.9028,-0.9032,-0.9038,-0.9102,-0.9085,-0.9107,-0.9147,-0.9169,-0.9177,-0.9184,-0.9208,-0.9217,-0.9112,-0.9112,-0.9113,0,-0.8981,-0.901,-0.8992,-0.9016,-0.9023,-0.8995,-0.9025,-0.9028,-0.9037,-0.9043,-0.9025,-0.9058,-0.9059,-0.9097,-0.9113,-0.9118,-0.9126,-0.9108,-0.9177,-0.9184,-0.919,-0.9213,-0.9222,-0.9115,-0.9115,-0.9115,-0.9114,0,-0.9055,-0.9075,-0.9099,-0.9107,-0.9117,-0.9143,-0.913,-0.9142,-0.9129,-0.9123,-0.9153,-0.9153,-0.9166,-0.9174,-0.9162,-0.9211,-0.9201,-0.918,-0.9149,-0.9203,-0.9224,-0.9232,-0.9119,-0.9118,-0.9117,-0.9117,0,0,-0.915,-0.9147,-0.9156,-0.916,-0.9161,-0.9176,-0.9201,-0.9214,-0.9225,-0.9231,-0.9252,-0.9275,-0.9256,-0.9262,-0.925,-0.9269,-0.9321,-0.9246,-0.9246,-0.9261,-0.9375,-0.9391,-0.9401,-0.9308,-0.931,-0.9311,-0.9375,0,-0.9214,-0.9257,-0.9242,-0.9286,-0.9304,-0.9276,-0.9298,-0.9301,-0.9296,-0.931,-0.9304,-0.9321,-0.9295,-0.9298,-0.9316,-0.9311,-0.9344,-0.9306,-0.9328,-0.9329,-0.9329,-0.9412,-0.943,-0.949,-0.9383,-0.9384,-0.9385,0,-0.9295,-0.9304,-0.935,-0.9348,-0.9355,-0.9375,-0.9385,-0.9399,-0.9402,-0.9396,-0.9403,-0.9386,-0.941,-0.9378,-0.9411,-0.9386,-0.9394,-0.9392,-0.9394,-0.9397,-0.9362,-0.9418,-0.9508,-0.9518,-0.9397,-0.9397,-0.9396,0,-0.9361,-0.9384,-0.9415,-0.9418,-0.9416,-0.9431,-0.943,-0.9431,-0.944,-0.9448,-0.9453,-0.9465,-0.9471,-0.948,-0.9467,-0.9445,-0.9502,-0.9469,-0.9499,-0.95,-0.9514,-0.9513,-0.9608,-0.9517,-0.9517,-0.9517,-0.9517,0,-0.9435,-0.9464,-0.9444,-0.9463,-0.9495,-0.9476,-0.9508,-0.9504,-0.9505,-0.9523,-0.9499,-0.9516,-0.9497,-0.9512,-0.9502,-0.9531,-0.9534,-0.9531,-0.9528,-0.9533,-0.9534,-0.9539,-0.9535,-0.9519,-0.9519,-0.9518,-0.9518,0,-0.9515,-0.9502,-0.9533,-0.9528,-0.9527,-0.9551,-0.9547,-0.9564,-0.9556,-0.9578,-0.9583,-0.9571,-0.9587,-0.9574,-0.9591,-0.9584,-0.9623,-0.9613,-0.9622,-0.962,-0.9651,-0.9649,-0.9753,-0.9766,-0.9666,-0.9667,-0.9668,0,-0.9563,-0.9585,-0.9582,-0.9592,-0.9593,-0.9609,-0.9617,-0.9599,-0.9609,-0.9613,-0.9629,-0.9644,-0.9654,-0.9682,-0.9675,-0.9687,-0.9678,-0.9714,-0.968,-0.9685,-0.968,-0.9679,-0.9682,-0.9722,-0.9723,-0.9724,-0.9725,0,-0.9652,-0.9644,-0.9656,-0.9667,-0.9677,-0.9684,-0.969,-0.9699,-0.968,-0.9692,-0.9708,-0.9717,-0.9733,-0.9747,-0.9757,-0.9757,-0.9738,-0.9735,-0.9743,-0.975,-0.9754,-0.9753,-0.9642,-0.9733,-0.9732,-0.9732,-0.9731,-0.9731,-0.9718,-0.9736,-0.9736,-0.9751,-0.9752,-0.9758,-0.9773,-0.9767,-0.978,-0.9792,-0.978,-0.98,-0.9801,-0.9812,-0.9814,-0.9829,-0.9814,-0.9825,-0.9828,-0.9832,-0.9837,-0.975,-0.983,-0.983,-0.983,-0.983,-0.9829,0,-0.9805,-0.9804,-0.9817,-0.9825,-0.9836,-0.9816,-0.9821,-0.9832,-0.985,-0.9852,-0.9863,-0.9881,-0.9895,-0.9888,-0.99,-0.9914,-0.9905,-0.9918,-0.9917,-0.9917,-0.9849,-0.9841,-0.9924,-0.9924,-0.9924,-0.9924,-0.9924,-0.9924,-0.9852,-0.9882,-0.9874,-0.9904,-0.9902,-0.9921,-0.9925,-0.993,-0.9931,-0.9953,-0.9964,-0.9959,-0.9958,-0.997,-0.9981,-0.9979,-0.9985,-1.0,-0.9995,-0.9932,-0.9922,-0.9913,-0.9906,-1.0002,-1.0002,-1.0063,-1.0063,-1.0064]},{"header":{"parameterUnit":"m.s-1","parameterCategory":1,"la1":30.2991,"la2":30.254,"lo1":-89.0895,"lo2":-89.0444,"dy":0.0017,"dx":0.0017,"nx":28,"ny":28,"refTime":"2024-11-27T03:00:00:Z","depth":0,"parameterNumber":3,"parameterNumberName":"V-component_of_WINDS"},"data":[0,0,0,0,0,0,0,0,0,0,0,0,0,0,0,0,0,0,0,0,0,0,0,0,0,0,0,0,0,0,0,0,0,0,0,0,0,0,0,0,0,0,0,0,0,0,0,0,0,0,0,0,0,0,0,0,0,0,-7.4586,-7.4588,0,-7.4713,-7.4715,-7.4716,-7.4638,-7.4635,-7.4631,-7.4627,-7.475,-7.4757,-7.4763,0,0,0,0,0,0,0,0,0,0,0,0,0,-7.4271,-7.4277,-7.4586,-7.4588,-7.459,-7.4713,-7.4715,-7.4716,-7.4639,-7.4634,-7.463,-7.4626,-7.4748,-7.4756,-7.4764,0,0,0,0,0,0,0,0,0,0,0,0,0,-7.4404,-7.4279,-7.4586,-7.4566,-7.4565,-7.4713,-7.4715,-7.4717,-7.464,-7.4634,-7.4629,-7.4624,-7.4745,-7.4755,-7.4765,-7.4937,0,0,-7.4796,-7.48,0,0,0,0,0,0,0,0,-7.4396,-7.4415,-7.4567,-7.4568,-7.4567,-7.4654,-7.4648,-7.479,-7.4641,-7.4611,-7.4627,-7.4621,-7.4722,-7.4734,-7.4769,-7.4943,-7.4948,-7.4796,-7.4803,-7.4807,-7.481,0,0,0,0,0,0,0,-7.4387,-7.441,-7.4636,-7.457,-7.457,-7.4549,-7.4561,-7.4675,-7.4696,-7.4613,-7.4608,-7.4625,-7.4721,-7.476,-7.4772,-7.495,-7.4796,-7.4805,-7.4811,-7.4815,-7.5271,-7.5276,0,0,0,0,0,0,-7.4381,-7.4402,-7.4632,-7.464,-7.4467,-7.4559,-7.4573,-7.4632,-7.4694,-7.4699,-7.4629,-7.4621,-7.4746,-7.476,-7.4776,-7.4982,-7.4807,-7.4816,-7.4822,-7.5265,-7.5272,-7.5279,0,0,0,0,0,0,-7.4374,-7.4402,-7.4627,-7.452,-7.4547,-7.457,-7.4637,-7.4637,-7.4676,-7.4706,-7.4709,-7.4666,-7.4742,-7.4762,-7.4898,-7.4985,-7.4821,-7.483,-7.5257,-7.5267,-7.5275,-7.5395,0,0,0,0,0,0,-7.4365,-7.44,-7.4467,-7.4522,-7.4553,-7.475,-7.4642,-7.4644,-7.4694,-7.4684,-7.4741,-7.4745,-7.4739,-7.4884,-7.4908,-7.4996,-7.4838,-7.525,-7.5262,-7.5272,-7.5383,-7.5407,-7.5427,0,0,0,0,0,-7.4354,-7.4494,-7.4471,-7.4499,-7.4638,-7.4755,-7.4772,-7.4764,-7.4702,-7.4768,-7.4788,-7.4743,-7.4972,-7.4898,-7.4925,-7.5017,-7.5244,-7.5258,-7.5272,-7.5373,-7.5402,-7.5427,0,0,0,0,0,0,-7.4445,-7.45,-7.4476,-7.4637,-7.4692,-7.4741,-7.4825,-7.4795,-7.4867,-7.4854,-7.4839,-7.4852,-7.4995,-7.5019,-7.4937,-7.5187,-7.5098,-7.5118,-7.5166,-7.5194,-7.5215,-7.5206,-7.4846,0,0,0,0,0,-7.4485,-7.4577,-7.4619,-7.4758,-7.4787,-7.4802,-7.4852,-7.4842,-7.4897,-7.4919,-7.4948,-7.5002,-7.5086,-7.5141,-7.5219,-7.5387,-7.5397,-7.5463,-7.5485,-7.5503,-7.552,-7.561,-7.564,-7.5324,-7.5323,-7.5323,0,0,-7.4565,-7.4607,-7.4666,-7.4777,-7.4819,-7.4913,-7.4822,-7.4925,-7.4995,-7.4934,-7.5066,-7.5089,-7.5148,-7.5301,-7.5369,-7.5325,-7.561,-7.552,-7.5534,-7.5542,-7.5628,-7.5658,-7.5684,-7.5333,-7.5331,-7.533,0,0,-7.4762,-7.4803,-7.4924,-7.4968,-7.5033,-7.5042,-7.5071,-7.5126,-7.514,-7.5272,-7.5229,-7.531,-7.5455,-7.5499,-7.554,-7.5755,-7.5717,-7.5781,-7.5895,-7.5984,-7.6009,-7.6031,-7.6108,-7.6135,-7.5798,-7.5798,-7.5798,0,-7.4854,-7.4997,-7.4989,-7.5097,-7.5147,-7.5099,-7.522,-7.5263,-7.5349,-7.5384,-7.5334,-7.5515,-7.5551,-7.5714,-7.5767,-7.5802,-7.5833,-7.5774,-7.6006,-7.6028,-7.6049,-7.6122,-7.6151,-7.5805,-7.5805,-7.5804,-7.5803,0,-7.5107,-7.5207,-7.5296,-7.5384,-7.5444,-7.5558,-7.5565,-7.5627,-7.5611,-7.5625,-7.576,-7.5802,-7.5889,-7.5927,-7.5911,-7.6088,-7.6059,-7.6008,-7.5918,-7.6086,-7.6155,-7.6183,-7.5816,-7.5813,-7.5811,-7.5809,0,0,-7.5363,-7.5447,-7.548,-7.5519,-7.5588,-7.5664,-7.5776,-7.5863,-7.5916,-7.5977,-7.607,-7.6194,-7.6148,-7.6195,-7.6184,-7.6262,-7.6431,-7.6202,-7.6203,-7.6243,-7.6627,-7.6665,-7.6698,-7.6406,-7.6411,-7.6415,-7.6623,0,-7.5563,-7.5761,-7.5758,-7.594,-7.6032,-7.5989,-7.6086,-7.6138,-7.6154,-7.6233,-7.6249,-7.6339,-7.6271,-7.6299,-7.6374,-7.6394,-7.6507,-7.6379,-7.649,-7.6494,-7.6477,-7.6734,-7.6774,-7.6967,-7.6649,-7.6654,-7.6657,0,-7.5824,-7.5898,-7.609,-7.6147,-7.6186,-7.6273,-7.6354,-7.643,-7.6488,-7.6494,-7.6548,-7.6525,-7.6637,-7.6545,-7.6697,-7.661,-7.6655,-7.6672,-7.6679,-7.6689,-7.6586,-7.675,-7.7029,-7.7058,-7.6699,-7.6696,-7.6693,0,-7.5992,-7.6138,-7.6273,-7.6308,-7.6378,-7.6441,-7.6472,-7.6524,-7.6578,-7.6647,-7.6682,-7.6762,-7.6807,-7.6869,-7.6868,-7.6801,-7.7023,-7.693,-7.703,-7.703,-7.7078,-7.7075,-7.7368,-7.7108,-7.7107,-7.7107,-7.7106,0,-7.6216,-7.6336,-7.635,-7.6432,-7.6565,-7.6559,-7.669,-7.6715,-7.6762,-7.6848,-7.6814,-7.6895,-7.6889,-7.697,-7.697,-7.7097,-7.7116,-7.7124,-7.7122,-7.7127,-7.7126,-7.7156,-7.7142,-7.7115,-7.7113,-7.7111,-7.711,0,-7.6425,-7.644,-7.6584,-7.6639,-7.6656,-7.6751,-7.6797,-7.6875,-7.6889,-7.6998,-7.7023,-7.7044,-7.7138,-7.7144,-7.7251,-7.7251,-7.7405,-7.7388,-7.7387,-7.7383,-7.7483,-7.7474,-7.7805,-7.7848,-7.756,-7.7563,-7.7565,0,-7.6568,-7.6659,-7.6726,-7.6782,-7.6818,-7.6909,-7.6964,-7.6962,-7.702,-7.7094,-7.7163,-7.7254,-7.7327,-7.7478,-7.7502,-7.7584,-7.7569,-7.768,-7.7581,-7.7583,-7.7571,-7.7566,-7.7574,-7.7699,-7.7702,-7.7704,-7.7706,0,-7.6819,-7.6822,-7.6904,-7.6991,-7.7058,-7.7124,-7.7186,-7.7234,-7.7239,-7.7306,-7.7403,-7.746,-7.7571,-7.7662,-7.7742,-7.7772,-7.774,-7.7738,-7.7765,-7.7771,-7.7766,-7.777,-7.7439,-7.773,-7.7727,-7.7726,-7.7724,-7.7724,-7.6999,-7.7079,-7.7139,-7.7232,-7.7279,-7.7338,-7.7415,-7.744,-7.7522,-7.7614,-7.7607,-7.7715,-7.777,-7.7875,-7.7912,-7.7994,-7.7956,-7.7996,-7.8006,-7.8016,-7.8027,-7.7754,-7.8009,-7.8008,-7.8008,-7.8007,-7.8007,0,-7.7249,-7.7286,-7.7372,-7.7461,-7.7534,-7.7501,-7.7568,-7.7631,-7.7727,-7.7783,-7.7856,-7.7968,-7.8056,-7.8088,-7.8173,-7.8233,-7.8221,-7.8256,-7.8251,-7.8259,-7.8056,-7.8024,-7.8265,-7.8265,-7.8265,-7.8264,-7.8264,-7.8264,-7.7387,-7.7521,-7.7532,-7.7688,-7.7723,-7.7831,-7.7872,-7.7926,-7.7971,-7.8098,-7.8173,-7.8194,-7.824,-7.8328,-7.8407,-7.8414,-7.8447,-7.8488,-7.8489,-7.8299,-7.8273,-7.8248,-7.8218,-7.8496,-7.8496,-7.8685,-7.8687,-7.8688]}]]